Wind_Speed
20 32 28 23 8 8 12 14 15 17 21 24 31 34 39 36 32 27 21 19 17 16 15 15 13 12 12 13 11 8 7 5 3 1 3 2 2 5 9 9 9 5 4
25 30 25 22 7 1 4 9 7 9 9 11 14 18 23 25 25 21 16 10 8 7 4 4 10 15 17 14 14 13 12 11 8 5 3 2 6 9 11 15 14 12 9
23 24 19 22 9 5 9 15 16 13 10 7 7 9 17 18 13 13 11 10 11 11 11 9 11 16 19 21 13 17 18 15 14 12 8 11 8 12 17 20 20 18 15
24 31 29 31 15 11 11 13 13 11 10 7 6 8 12 11 10 12 15 13 15 17 16 15 15 18 22 23 23 21 21 21 27 26 29 31 28 26 23 23 25 24 22
24 34 32 28 16 18 16 16 13 12 9 7 7 8 14 17 18 19 18 21 24 22 23 24 25 28 27 27 29 31 33 28 27 35 40 34 34 35 36 31 35 36 36
26 36 29 21 19 22 19 20 16 15 12 8 11 14 12 12 17 20 23 27 27 27 28 29 29 31 32 35 38 38 40 39 42 41 44 42 42 43 42 42 46 46 44
26 22 23 17 20 24 20 19 15 16 11 11 10 6 6 4 4 8 14 15 19 19 23 30 33 36 38 40 44 43 46 51 47 46 41 41 44 48 48 49 52 52 52
33 29 18 20 16 23 22 20 17 19 15 14 11 7 6 12 20 24 25 23 22 23 25 28 32 34 38 39 37 40 46 45 44 45 50 53 52 50 49 53 57 52 54
31 25 18 16 16 14 17 21 18 15 16 13 9 8 16 19 19 21 22 25 27 26 26 26 26 27 29 29 32 34 35 38 45 50 49 45 48 51 53 56 58 61 61
17 16 14 12 15 15 14 10 15 14 12 9 10 15 19 23 20 21 25 27 27 28 30 31 29 29 29 31 30 31 31 34 37 39 38 41 44 47 49 49 49 55 59
1 3 10 9 10 12 18 17 15 12 13 13 15 17 19 21 23 24 27 29 31 34 35 33 33 33 35 36 36 36 35 36 38 40 40 41 43 44 45 48 50 52 52
5 5 5 6 12 17 16 15 16 15 17 18 20 23 22 23 24 28 31 34 37 38 39 38 35 35 37 40 41 43 44 44 45 46 46 45 44 43 44 45 48 49 50
17 7 7 5 10 12 8 6 9 11 13 16 20 21 22 23 28 32 37 39 39 39 38 36 38 40 42 44 46 47 47 47 47 46 45 44 43 41 41 42 43 45 48
12 14 9 4 2 5 3 7 8 11 14 18 18 21 27 28 32 35 38 41 40 42 42 43 43 46 49 50 51 51 52 51 49 46 44 44 43 43 44 44 46 47 48
4 8 4 6 6 3 7 9 13 18 20 22 25 32 33 36 41 41 41 42 45 46 48 50 52 52 52 52 50 48 49 47 47 47 47 47 48 49 48 48 48 47 49
11 8 8 4 11 20 20 22 23 29 27 31 38 42 47 49 46 47 46 46 49 51 52 51 52 52 51 51 50 51 49 48 50 52 51 51 51 50 51 50 48 46 45
15 26 23 23 26 24 24 33 31 33 42 43 46 48 50 53 53 54 51 52 53 54 55 56 55 54 52 50 51 51 49 47 47 48 50 53 54 54 51 50 49 49 51
29 32 32 28 25 19 26 32 36 41 47 51 55 60 64 60 55 53 55 58 59 58 55 52 53 52 51 49 49 50 51 53 54 54 53 52 52 52 53 55 55 54 52
28 32 32 31 26 32 35 38 46 50 51 62 63 71 67 61 57 55 55 56 55 54 52 50 50 50 51 52 54 56 56 56 55 54 54 54 55 56 56 57 57 56 55
28 27 25 30 34 41 42 48 52 58 57 57 55 54 55 54 54 53 53 52 51 50 50 50 51 53 55 55 55 55 56 57 58 58 59 60 60 60 60 60 61 62 63
28 29 37 42 45 46 46 49 39 34 40 42 46 49 52 52 51 52 52 53 53 54 55 55 56 55 55 54 55 56 59 61 62 64 66 67 68 70 71 72 72 73 73
30 33 31 31 37 30 31 27 35 39 39 40 43 48 52 52 53 55 54 53 53 53 54 54 55 57 58 60 62 63 65 65 67 70 72 74 77 79 80 82 84 85 85
27 17 10 15 26 29 31 36 44 43 39 52 54 52 52 55 55 55 55 55 55 56 58 60 62 63 64 66 67 67 70 73 75 77 81 84 86 87 88 89 90 90 90
24 20 20 28 34 40 40 43 48 50 59 48 49 54 55 58 55 56 57 58 61 64 66 67 68 69 70 69 71 73 75 79 82 84 86 87 89 90 90 91 92 92 90
30 29 34 37 45 47 46 50 62 50 53 50 53 59 63 59 57 61 65 65 66 68 71 70 69 70 73 75 79 83 84 86 87 89 90 88 84 83 83 85 86 85 83
32 35 37 38 44 49 52 58 50 53 54 56 61 63 62 59 59 63 65 72 75 73 70 68 70 74 78 83 87 87 92 93 90 86 81 79 79 79 77 75 75 73 73
Wind_Direction
346 351 355 354 329 301 261 223 207 200 208 219 227 234 239 248 255 256 255 268 270 278 281 264 254 259 269 274 262 261 247 273 302 302 42 32 184 188 183 195 191 171 176
321 330 333 341 304 296 241 203 159 137 180 205 226 235 239 244 242 245 250 240 277 291 312 271 255 262 266 257 271 259 253 245 242 251 235 299 279 241 226 217 220 218 233
288 316 320 339 278 208 168 146 136 136 145 168 186 218 223 221 223 222 224 265 276 266 284 245 260 265 276 275 252 266 273 255 253 249 272 294 273 266 265 253 252 245 259
310 303 296 307 278 215 187 168 156 150 155 165 202 201 218 227 220 223 235 276 283 282 284 266 257 269 274 278 281 282 277 277 279 275 278 289 292 292 280 271 263 259 262
301 303 293 301 241 215 198 201 195 185 178 186 231 255 250 249 253 258 246 282 293 288 281 274 268 270 267 268 271 272 279 278 282 280 280 278 279 280 279 279 265 263 267
300 312 300 284 220 213 202 211 222 221 228 265 270 286 273 262 264 268 269 268 266 269 275 276 276 274 269 264 266 267 274 276 283 287 285 274 276 276 275 274 279 278 275
291 305 297 251 208 212 212 213 227 227 252 272 265 262 272 259 295 309 330 311 302 297 284 275 272 268 269 274 275 276 274 278 279 279 278 280 276 270 270 272 277 277 274
279 287 276 228 207 212 218 229 239 237 242 259 271 275 283 308 314 315 313 315 311 307 296 289 284 279 275 272 273 268 261 264 267 266 268 269 267 269 268 265 267 270 274
282 282 245 212 211 219 229 234 229 228 244 259 273 288 305 322 322 313 313 312 314 312 306 301 300 299 298 294 287 288 285 282 280 276 275 274 268 267 267 267 266 266 267
270 266 228 206 213 212 218 227 218 228 236 239 260 293 303 309 315 312 312 317 316 307 298 295 293 294 292 291 291 289 288 288 289 286 283 281 279 278 278 274 270 267 267
21 230 232 219 217 217 217 223 210 208 223 242 266 284 292 306 308 312 312 309 307 305 299 295 296 297 301 301 298 296 294 293 294 293 291 288 285 283 281 278 276 275 272
79 146 156 217 209 206 209 210 213 222 246 261 273 284 288 300 302 303 305 304 304 301 296 292 291 295 298 298 296 296 294 295 296 295 294 290 287 284 281 279 279 278 276
46 52 109 177 207 205 213 226 239 242 248 262 271 279 290 299 303 304 310 309 303 299 297 295 296 297 297 297 297 298 298 299 299 298 296 293 290 288 287 287 284 279 279
80 58 62 105 244 215 220 241 250 260 270 270 273 292 307 308 312 312 313 308 304 305 304 303 301 299 299 299 299 299 300 299 297 295 295 294 294 293 292 291 288 285 281
129 55 18 242 303 171 259 265 290 283 283 290 295 314 312 312 317 316 312 312 310 305 302 300 300 300 300 299 299 301 298 297 296 296 295 294 296 296 295 292 288 284 280
253 304 308 274 249 235 290 290 292 301 301 304 316 318 319 322 319 316 313 309 307 305 304 303 302 301 300 299 298 300 301 298 295 297 297 295 294 294 294 292 289 287 283
282 301 285 267 270 264 276 288 288 296 307 316 325 323 319 315 312 310 308 307 307 306 305 305 302 302 301 300 298 299 300 298 296 296 296 296 294 293 291 288 287 286 284
297 297 284 269 263 267 270 272 285 301 317 316 317 316 314 313 311 307 307 307 307 307 308 308 306 305 305 306 306 304 303 301 299 297 295 292 291 290 291 290 287 285 283
296 292 259 251 253 248 268 268 281 289 294 308 299 303 308 310 312 311 309 309 309 308 309 309 309 308 307 306 305 303 302 300 298 296 294 292 290 288 287 286 285 284 281
282 277 254 250 252 266 274 281 284 294 304 310 314 313 313 312 312 312 312 312 310 310 309 308 307 306 305 304 303 303 301 300 299 298 296 294 291 289 286 284 282 281 281
284 271 260 259 259 271 286 306 308 322 317 318 317 319 322 320 317 314 314 312 311 310 309 308 307 307 307 306 303 301 299 298 296 294 293 292 291 289 286 284 282 280 277
283 276 276 275 275 300 309 321 328 325 321 327 329 330 334 328 320 315 312 311 311 311 311 311 310 308 306 304 302 301 300 298 296 294 292 290 289 287 286 284 283 283 282
271 248 258 275 312 328 329 321 323 323 321 329 332 333 329 327 319 317 316 316 316 315 314 313 312 310 307 306 304 302 301 299 298 297 296 294 292 290 289 287 284 282 281
234 248 285 307 315 324 323 319 322 326 323 328 327 329 327 325 318 316 315 317 319 317 316 314 313 311 309 307 305 305 306 305 303 301 300 298 296 293 291 289 287 285 281
241 265 285 305 309 318 322 317 324 324 330 323 327 331 329 323 317 318 318 317 318 317 316 314 314 314 313 312 313 313 311 309 305 303 302 299 295 292 290 288 286 286 284
263 280 294 303 312 317 321 327 327 325 323 327 330 327 325 321 319 321 322 322 322 319 317 314 313 315 316 316 316 314 314 311 308 305 301 297 296 295 293 291 288 287 284
Height
10940 10942 10940 10940 10940 10938 10938 10940 10942 10946 10949 10954 10958 10960 10961 10964 10966 10968 10968 10968 10969 10969 10970 10971 10972 10974 10974 10976 10978 10978 10977 10975 10975 10975 10975 10974 10973 10974 10973 10973 10973 10973 10973
10935 10940 10939 10939 10940 10939 10939 10942 10944 10946 10948 10951 10954 10958 10958 10959 10961 10962 10964 10965 10964 10964 10965 10967 10968 10969 10972 10973 10973 10974 10974 10973 10972 10971 10972 10971 10972 10972 10973 10971 10970 10969 10969
10936 10938 10938 10938 10939 10941 10943 10945 10945 10946 10948 10950 10953 10954 10952 10955 10957 10959 10961 10962 10962 10962 10964 10965 10966 10967 10968 10969 10969 10971 10972 10971 10971 10971 10971 10970 10968 10968 10968 10968 10967 10965 10964
10930 10934 10935 10936 10937 10941 10944 10947 10947 10947 10948 10949 10950 10952 10953 10953 10955 10956 10957 10960 10961 10961 10962 10964 10964 10965 10965 10965 10964 10965 10966 10966 10966 10967 10965 10964 10963 10964 10963 10963 10961 10960 10958
10928 10928 10929 10930 10931 10939 10942 10946 10947 10948 10948 10949 10950 10952 10953 10953 10952 10954 10956 10957 10957 10957 10957 10958 10958 10958 10959 10959 10959 10959 10958 10958 10958 10959 10959 10957 10956 10956 10954 10954 10953 10952 10950
10922 10920 10921 10924 10927 10934 10938 10943 10946 10947 10947 10948 10948 10947 10949 10950 10950 10950 10951 10952 10951 10950 10950 10949 10949 10949 10949 10949 10950 10950 10949 10949 10949 10949 10950 10948 10946 10945 10944 10941 10940 10940 10937
10916 10918 10920 10922 10924 10929 10932 10938 10942 10944 10944 10944 10945 10945 10947 10947 10947 10947 10946 10945 10943 10942 10942 10941 10941 10940 10939 10938 10938 10937 10938 10936 10933 10932 10932 10933 10932 10931 10930 10927 10926 10924 10923
10915 10918 10918 10920 10921 10924 10928 10934 10937 10938 10939 10939 10941 10942 10943 10943 10942 10941 10939 10939 10938 10936 10934 10933 10931 10928 10927 10926 10925 10923 10922 10920 10916 10916 10913 10911 10912 10913 10911 10910 10910 10909 10907
10912 10913 10915 10916 10918 10922 10926 10931 10933 10934 10935 10935 10937 10938 10938 10937 10936 10934 10933 10933 10930 10929 10927 10924 10922 10920 10918 10916 10914 10911 10910 10907 10905 10904 10902 10898 10896 10895 10896 10894 10893 10894 10891
10910 10911 10913 10914 10915 10920 10926 10930 10931 10932 10933 10934 10934 10934 10934 10932 10930 10929 10928 10926 10923 10921 10919 10916 10914 10911 10909 10907 10905 10902 10900 10896 10893 10891 10890 10887 10884 10881 10878 10877 10875 10873 10870
10909 10911 10912 10910 10912 10917 10923 10928 10928 10928 10929 10930 10930 10929 10928 10925 10923 10923 10922 10919 10915 10912 10910 10907 10904 10902 10899 10896 10894 10891 10889 10886 10881 10877 10874 10873 10871 10868 10866 10861 10858 10856 10854
10910 10910 10906 10908 10913 10917 10920 10922 10923 10924 10925 10925 10924 10923 10921 10920 10919 10918 10915 10912 10908 10903 10899 10897 10896 10893 10890 10888 10884 10879 10876 10872 10869 10865 10862 10859 10856 10853 10850 10846 10843 10840 10837
10908 10907 10908 10911 10915 10916 10918 10921 10921 10920 10920 10920 10917 10916 10915 10914 10913 10911 10907 10903 10899 10895 10890 10887 10883 10880 10878 10875 10871 10867 10862 10858 10855 10851 10846 10844 10841 10838 10834 10831 10829 10827 10822
10901 10905 10908 10912 10914 10915 10917 10918 10918 10918 10917 10915 10912 10910 10908 10906 10903 10900 10897 10894 10889 10884 10879 10875 10872 10869 10864 10860 10857 10852 10847 10842 10838 10834 10831 10828 10826 10823 10819 10816 10812 10810 10806
10902 10900 10905 10907 10910 10911 10913 10914 10914 10912 10910 10908 10907 10904 10900 10896 10893 10889 10884 10880 10876 10872 10868 10864 10858 10853 10849 10845 10841 10837 10832 10827 10822 10818 10814 10811 10808 10804 10802 10800 10797 10795 10790
10896 10898 10900 10900 10902 10903 10905 10906 10903 10901 10900 10898 10897 10894 10889 10884 10880 10874 10870 10866 10863 10859 10855 10850 10845 10840 10834 10829 10825 10821 10817 10812 10807 10802 10797 10794 10791 10789 10785 10782 10780 10777 10774
10893 10895 10893 10892 10893 10894 10894 10895 10894 10891 10890 10886 10883 10880 10876 10872 10868 10862 10857 10853 10848 10844 10839 10834 10828 10823 10819 10814 10810 10805 10801 10797 10793 10788 10783 10777 10773 10770 10767 10764 10763 10761 10757
10887 10887 10884 10882 10880 10883 10888 10886 10882 10879 10877 10875 10872 10869 10865 10859 10854 10849 10843 10838 10832 10828 10823 10818 10812 10807 10801 10797 10792 10788 10784 10780 10775 10771 10768 10763 10758 10753 10748 10745 10743 10742 10739
10879 10879 10876 10875 10876 10876 10877 10876 10875 10872 10869 10865 10861 10856 10850 10843 10838 10832 10827 10823 10818 10813 10807 10802 10797 10792 10787 10782 10777 10772 10767 10763 10758 10753 10749 10745 10741 10736 10732 10727 10722 10719 10717
10871 10870 10870 10871 10872 10871 10871 10871 10869 10865 10861 10856 10851 10846 10839 10832 10825 10819 10814 10809 10804 10799 10793 10788 10783 10778 10772 10767 10761 10756 10750 10745 10740 10735 10730 10725 10721 10717 10713 10708 10703 10700 10696
10867 10867 10865 10865 10865 10866 10866 10867 10864 10856 10851 10846 10842 10837 10830 10822 10814 10808 10802 10796 10791 10785 10779 10773 10767 10762 10757 10751 10745 10739 10733 10727 10721 10715 10709 10703 10697 10691 10686 10682 10678 10675 10672
10856 10855 10856 10857 10861 10865 10862 10857 10852 10849 10844 10839 10832 10823 10814 10807 10801 10795 10789 10782 10775 10769 10763 10758 10753 10747 10741 10734 10727 10720 10713 10706 10699 10691 10684 10676 10669 10663 10657 10650 10645 10640 10637
10847 10848 10849 10852 10853 10850 10848 10846 10843 10838 10831 10823 10813 10806 10798 10792 10786 10780 10774 10767 10760 10753 10747 10741 10734 10728 10721 10715 10707 10700 10690 10681 10672 10663 10654 10644 10636 10629 10622 10615 10609 10605 10600
10840 10842 10841 10840 10839 10838 10837 10834 10832 10824 10816 10804 10797 10791 10785 10779 10772 10765 10757 10749 10743 10735 10728 10722 10714 10706 10699 10692 10683 10674 10665 10653 10643 10632 10623 10612 10601 10592 10584 10575 10567 10562 10560
10823 10826 10826 10824 10826 10823 10821 10819 10815 10806 10798 10791 10785 10780 10774 10766 10758 10751 10744 10737 10728 10719 10711 10701 10692 10684 10675 10666 10656 10646 10635 10624 10612 10600 10589 10578 10568 10558 10549 10541 10532 10526 10520
10811 10812 10813 10814 10814 10808 10804 10801 10797 10791 10785 10777 10769 10762 10756 10749 10743 10735 10727 10719 10710 10700 10690 10680 10670 10660 10650 10639 10628 10615 10602 10589 10577 10566 10556 10545 10535 10526 10519 10511 10503 10497 10491